This is the latest recevied weather packets stored in our database for station/object WX5HOT. If no packets are shown the sender has not sent any weather packets the latest 10 day(s).
| Time | Temp. | Humidity | Pressure | Rain* | Wind** | Luminosity | Snow |
|---|---|---|---|---|---|---|---|
| 1777557932 | 11.67° C | 74% | 1066.9 hPa | 0 mm | - | 354 W/m² | - |
| 1777557630 | 11.67° C | 73% | 1067 hPa | 0 mm | - | 383 W/m² | - |
| 1777557326 | 11.11° C | 74% | 1067.1 hPa | 0 mm | - | 344 W/m² | - |
| 1777557022 | 11.11° C | 75% | 1067.2 hPa | 0 mm | - | 307 W/m² | - |
| 1777556718 | 10.56° C | 79% | 1067.1 hPa | 0 mm | - | 301 W/m² | - |
| 1777556415 | 10.56° C | 78% | 1066.9 hPa | 0 mm | - | 115 W/m² | - |
| 1777556115 | 10.56° C | 78% | 1066.5 hPa | 0 mm | - | 147 W/m² | - |
| 1777555810 | 10.56° C | 78% | 1066.7 hPa | 0 mm | - | 176 W/m² | - |
| 1777555506 | 10.56° C | 79% | 1066.6 hPa | 0 mm | - | 177 W/m² | - |
| 1777555202 | 10.56° C | 80% | 1066.4 hPa | 0 mm | - | 181 W/m² | - |
| 1777554900 | 10.56° C | 79% | 1066.6 hPa | 0 mm | - | 189 W/m² | - |
| 1777554596 | 10.56° C | 79% | 1066.4 hPa | 0 mm | - | 125 W/m² | - |
| 1777554293 | 10.56° C | 79% | 1066.1 hPa | 0 mm | - | 212 W/m² | - |
| 1777553990 | 10.56° C | 82% | 1066.4 hPa | 0 mm | - | 267 W/m² | - |
| 1777553687 | 10° C | 84% | 1066.4 hPa | 0 mm | - | 186 W/m² | - |
| 1777553384 | 10° C | 85% | 1066.2 hPa | 0 mm | - | 112 W/m² | - |
| 1777553079 | 10° C | 84% | 1066.3 hPa | 0 mm | - | 104 W/m² | - |
| 1777552774 | 10° C | 85% | 1066.3 hPa | 0 mm | - | 145 W/m² | - |
| 1777552470 | 9.44° C | 86% | 1065.9 hPa | 0 mm | - | 95 W/m² | - |
| 1777552167 | 10° C | 86% | 1065.7 hPa | 0 mm | - | 68 W/m² | - |
| 1777551864 | 10° C | 85% | 1065.7 hPa | 0 mm | - | 64 W/m² | - |
| 1777551562 | 10° C | 84% | 1066.1 hPa | 0 mm | - | 74 W/m² | - |
| 1777551258 | 10° C | 84% | 1066.1 hPa | 0 mm | - | 83 W/m² | - |
| 1777550955 | 10° C | 84% | 1066.2 hPa | 0 mm | - | 72 W/m² | - |
| 1777550652 | 10° C | 85% | 1066.3 hPa | 0 mm | - | 58 W/m² | - |
* Rain latest hour (hover to see other rain measurements)
** Current wind speed in m/s (hover to see current wind gust speed)